ECHO 2 DEB (METAL OBJ), 743

Orbit data source: Space-Track

ECHO 2 DEB (METAL OBJ), 743 is space debris in LEO originally from a launch on Sat, 25 Jan 1964 UTC launched from the Air Force Western Test Range (AFWTR). Debris objects in space refer to the collection of defunct objects orbiting the Earth. Examples of debris include non-operational satellites, rocket bodies, and fragments generated from explosions, collisions, or faulty payload assembly.

Loading next visibility...
Identifier
743, 1964-004D
Orbit
LEO
Country
Flag of USUS
Related business
Manufacturer
Grummann
Mission
Spacecraft
Bus & Motor
ECHO CANISTER, Unknown motor
Mass
35 kg wet, 35 kg dry
Launch date (UTC)
1964-01-25 (62 years ago)
Launch vehicle
Unknown
Launch site
Air Force Western Test Range (AFWTR)
Object type
Payload
Rocket body
Debris
Shape & HBR
Unknown shape, 0.9 m
Radar Cross Section
Medium (>0.1 m² and <1 m²)

Expand to show TLE details & history
Last TLE update: 7 hours ago

TLE from 7 hours ago
0 ECHO 2 DEB (METAL OBJ)
1   743U 64004D   26125.13423531  .00000062  00000-0  10313-3 0  9995
2   743  81.5233 200.4433 0175854 101.9854 275.9967 13.26878409 12413
Epoch: 2026-05-05T03:13Z
TLE epoch observation values (Epoch: 2026-05-05T03:13:17.930Z)
Latitude
15.77527°
Longitude
-68.4941°
Altitude
1,149.151 km
Speed
7.285 km/s
True Right ascension
13h 31m 22s
True Declination
15° 41' 25"
Sunlit
Object was in full shadow at epoch
Visualization orbit readout
Latitude
Unknown
Longitude
Unknown
Altitude
Unknown
Speed
Unknown
Apparent Right ascension
Unknown
Apparent Declination
Unknown
Sunlit
N/A
Visualization observer readout
Local Sidereal Time
18:17:57
Azimuth
Unknown
Elevation
Unknown
Doppler factor
Unknown
Orbital elements
Apogee altitude
1,288.321 km
Perigee altitude
1,023.345 km
Semi-major axis
7,533.97 km
Eccentricity
0.01759
Inclination
81.5233°
RAAN
200.4433°
Arg. of periapsis
101.9854°
True anomaly
273.98839°
Mean anomaly
275.9967°
Eccentric anomaly
274.99295°
Mean motion
3.319 °/min
Orbital period
108.47 mins
BSTAR
0.00010313
Loading maneuver chart data...
Computing Atmospheric mass density...
Loading historical data...
Loading historical data...
Loading historical data...
Loading historical data...
Loading historical data...
Loading historical data...
Loading historical data...

Documentation

Showing up to 5 results
|